Time,TemperatureF,DewpointF,PressureIn,WindDirection,WindDirectionDegrees,WindSpeedMPH,WindSpeedGustMPH,Humidity,HourlyPrecipIn,Conditions,Clouds,dailyrainin,SoftwareType,DateUTC
2013-02-26 00:05:00,41.8,35.0,30.23,SW,222,3.0,-999.0,77,-99.99,,,0.00,weatherlink.com 1.10,2013-02-26 08:05:00,
2013-02-26 00:20:00,41.5,35.0,30.22,SSW,203,11.0,-999.0,77,-99.99,,,0.00,weatherlink.com 1.10,2013-02-26 08:20:00,
2013-02-26 00:35:00,42.3,35.0,30.22,South,190,9.0,-999.0,74,-99.99,,,0.00,weatherlink.com 1.10,2013-02-26 08:35:00,
2013-02-26 00:50:00,42.9,35.0,30.22,SSW,202,3.0,-999.0,74,-99.99,,,0.00,weatherlink.com 1.10,2013-02-26 08:50:00,
2013-02-26 01:05:00,41.8,34.0,30.21,WSW,246,0.0,-999.0,75,-99.99,,,0.00,weatherlink.com 1.10,2013-02-26 09:05:00,
2013-02-26 01:20:00,40.7,34.0,30.21,SSW,213,5.0,-999.0,77,-99.99,,,0.00,weatherlink.com 1.10,2013-02-26 09:20:00,
2013-02-26 01:35:00,40.6,34.0,30.21,SW,235,4.0,-999.0,78,-99.99,,,0.00,weatherlink.com 1.10,2013-02-26 09:35:00,
2013-02-26 01:50:00,40.4,34.0,30.20,SW,232,5.0,-999.0,79,-99.99,,,0.00,weatherlink.com 1.10,2013-02-26 09:50:00,
2013-02-26 02:05:00,40.1,34.0,30.20,SSW,196,2.0,-999.0,80,-99.99,,,0.00,weatherlink.com 1.10,2013-02-26 10:05:00,
2013-02-26 02:20:00,40.1,34.0,30.20,SW,226,8.0,-999.0,80,-99.99,,,0.00,weatherlink.com 1.10,2013-02-26 10:20:00,
2013-02-26 02:35:00,40.2,34.0,30.21,SW,219,4.0,-999.0,79,-99.99,,,0.00,weatherlink.com 1.10,2013-02-26 10:35:00,
2013-02-26 02:50:00,39.6,34.0,30.20,SW,227,7.0,-999.0,80,-99.99,,,0.00,weatherlink.com 1.10,2013-02-26 10:50:00,
2013-02-26 03:05:00,39.6,33.0,30.19,SSW,213,2.0,-999.0,77,-99.99,,,0.00,weatherlink.com 1.10,2013-02-26 11:05:00,
2013-02-26 03:20:00,38.7,32.0,30.19,WSW,248,4.0,-999.0,77,-99.99,,,0.00,weatherlink.com 1.10,2013-02-26 11:20:00,
2013-02-26 03:35:00,37.4,31.0,30.19,WSW,237,2.0,-999.0,78,-99.99,,,0.00,weatherlink.com 1.10,2013-02-26 11:35:00,
2013-02-26 03:50:00,36.9,31.0,30.18,West,262,4.0,-999.0,79,-99.99,,,0.00,weatherlink.com 1.10,2013-02-26 11:50:00,
2013-02-26 04:05:00,35.9,30.0,30.18,SW,216,2.0,-999.0,80,-99.99,,,0.00,weatherlink.com 1.10,2013-02-26 12:05:00,
2013-02-26 04:20:00,37.0,32.0,30.18,WSW,249,5.0,-999.0,81,-99.99,,,0.00,weatherlink.com 1.10,2013-02-26 12:20:00,
2013-02-26 04:35:00,37.2,31.0,30.18,WSW,240,4.0,-999.0,79,-99.99,,,0.00,weatherlink.com 1.10,2013-02-26 12:35:00,
2013-02-26 04:50:00,36.6,31.0,30.18,WSW,252,6.0,-999.0,79,-99.99,,,0.00,weatherlink.com 1.10,2013-02-26 12:50:00,
2013-02-26 05:05:00,36.8,31.0,30.18,SW,234,6.0,-999.0,79,-99.99,,,0.00,weatherlink.com 1.10,2013-02-26 13:05:00,
2013-02-26 05:20:00,37.4,31.0,30.18,WSW,246,6.0,-999.0,77,-99.99,,,0.00,weatherlink.com 1.10,2013-02-26 13:20:00,
2013-02-26 05:35:00,38.9,31.0,30.18,SW,218,3.0,-999.0,73,-99.99,,,0.00,weatherlink.com 1.10,2013-02-26 13:35:00,
2013-02-26 05:50:00,39.6,31.0,30.18,SSW,202,6.0,-999.0,71,-99.99,,,0.00,weatherlink.com 1.10,2013-02-26 13:50:00,
2013-02-26 06:05:00,39.7,31.0,30.17,SW,217,4.0,-999.0,70,-99.99,,,0.00,weatherlink.com 1.10,2013-02-26 14:05:00,
2013-02-26 06:20:00,39.0,30.0,30.17,WSW,253,1.0,-999.0,70,-99.99,,,0.00,weatherlink.com 1.10,2013-02-26 14:20:00,
2013-02-26 06:35:00,37.5,29.0,30.17,SSW,200,1.0,-999.0,72,-99.99,,,0.00,weatherlink.com 1.10,2013-02-26 14:35:00,
2013-02-26 06:50:00,36.3,29.0,30.16,WSW,252,3.0,-999.0,74,-99.99,,,0.00,weatherlink.com 1.10,2013-02-26 14:50:00,
2013-02-26 07:05:00,35.7,29.0,30.16,West,279,0.0,-999.0,76,-99.99,,,0.00,weatherlink.com 1.10,2013-02-26 15:05:00,
2013-02-26 07:20:00,35.3,29.0,30.17,West,275,0.0,-999.0,77,-99.99,,,0.00,weatherlink.com 1.10,2013-02-26 15:20:00,
2013-02-26 07:35:00,34.8,29.0,30.17,West,269,1.0,-999.0,78,-99.99,,,0.00,weatherlink.com 1.10,2013-02-26 15:35:00,
2013-02-26 07:50:00,34.8,29.0,30.17,West,269,1.0,-999.0,79,-99.99,,,0.00,weatherlink.com 1.10,2013-02-26 15:50:00,
2013-02-26 08:05:00,35.3,30.0,30.17,West,269,0.0,-999.0,81,-99.99,,,0.00,weatherlink.com 1.10,2013-02-26 16:05:00,
2013-02-26 08:20:00,36.5,32.0,30.17,West,269,0.0,-999.0,82,-99.99,,,0.00,weatherlink.com 1.10,2013-02-26 16:20:00,
2013-02-26 08:35:00,41.3,34.0,30.18,NNE,22,1.0,-999.0,74,-99.99,,,0.00,weatherlink.com 1.10,2013-02-26 16:35:00,
2013-02-26 08:50:00,46.3,37.0,30.18,NNW,342,2.0,-999.0,70,-99.99,,,0.00,weatherlink.com 1.10,2013-02-26 16:50:00,
2013-02-26 09:05:00,49.9,36.0,30.17,North,355,2.0,-999.0,59,-99.99,,,0.00,weatherlink.com 1.10,2013-02-26 17:05:00,
2013-02-26 09:20:00,51.3,37.0,30.17,NE,53,3.0,-999.0,58,-99.99,,,0.00,weatherlink.com 1.10,2013-02-26 17:20:00,
2013-02-26 09:35:00,51.0,40.0,30.19,ESE,117,2.0,-999.0,65,-99.99,,,0.00,weatherlink.com 1.10,2013-02-26 17:35:00,
2013-02-26 09:50:00,50.4,37.0,30.18,ENE,65,2.0,-999.0,61,-99.99,,,0.00,weatherlink.com 1.10,2013-02-26 17:50:00,
2013-02-26 10:05:00,52.5,40.0,30.19,East,97,1.0,-999.0,63,-99.99,,,0.00,weatherlink.com 1.10,2013-02-26 18:05:00,
2013-02-26 10:20:00,51.5,40.0,30.18,ENE,66,3.0,-999.0,65,-99.99,,,0.00,weatherlink.com 1.10,2013-02-26 18:20:00,
2013-02-26 10:35:00,50.5,40.0,30.19,ESE,121,5.0,-999.0,68,-99.99,,,0.00,weatherlink.com 1.10,2013-02-26 18:35:00,
2013-02-26 10:50:00,49.8,38.0,30.19,SE,126,6.0,-999.0,65,-99.99,,,0.00,weatherlink.com 1.10,2013-02-26 18:50:00,
2013-02-26 11:05:00,49.2,40.0,30.19,South,178,6.0,-999.0,70,-99.99,,,0.00,weatherlink.com 1.10,2013-02-26 19:05:00,
2013-02-26 11:20:00,48.8,40.0,30.19,South,169,11.0,-999.0,73,-99.99,,,0.00,weatherlink.com 1.10,2013-02-26 19:20:00,
2013-02-26 11:35:00,50.9,41.0,30.18,WSW,238,7.0,-999.0,69,-99.99,,,0.00,weatherlink.com 1.10,2013-02-26 19:35:00,
2013-02-26 11:50:00,51.2,41.0,30.18,South,169,15.0,-999.0,68,-99.99,,,0.00,weatherlink.com 1.10,2013-02-26 19:50:00,
2013-02-26 12:05:00,50.9,42.0,30.20,SSE,159,17.0,-999.0,71,-99.99,,,0.00,weatherlink.com 1.10,2013-02-26 20:05:00,
2013-02-26 12:20:00,52.2,43.0,30.19,SSW,207,7.0,-999.0,71,-99.99,,,0.00,weatherlink.com 1.10,2013-02-26 20:20:00,
2013-02-26 12:35:00,51.9,42.0,30.18,South,186,12.0,-999.0,70,-99.99,,,0.00,weatherlink.com 1.10,2013-02-26 20:35:00,
2013-02-26 12:50:00,52.3,44.0,30.18,SSW,196,11.0,-999.0,72,-99.99,,,0.00,weatherlink.com 1.10,2013-02-26 20:50:00,
2013-02-26 13:05:00,51.3,44.0,30.18,SW,231,5.0,-999.0,76,-99.99,,,0.00,weatherlink.com 1.10,2013-02-26 21:05:00,
2013-02-26 13:20:00,52.7,44.0,30.17,SSW,207,8.0,-999.0,73,-99.99,,,0.00,weatherlink.com 1.10,2013-02-26 21:20:00,
2013-02-26 13:35:00,50.7,43.0,30.17,SSE,159,7.0,-999.0,76,-99.99,,,0.00,weatherlink.com 1.10,2013-02-26 21:35:00,
2013-02-26 13:50:00,51.3,44.0,30.17,South,185,11.0,-999.0,76,-99.99,,,0.00,weatherlink.com 1.10,2013-02-26 21:50:00,
2013-02-26 14:05:00,50.7,43.0,30.17,South,175,12.0,-999.0,75,-99.99,,,0.00,weatherlink.com 1.10,2013-02-26 22:05:00,
2013-02-26 14:20:00,50.9,44.0,30.17,South,190,16.0,-999.0,77,-99.99,,,0.00,weatherlink.com 1.10,2013-02-26 22:20:00,
2013-02-26 14:35:00,52.1,44.0,30.17,SSE,167,16.0,-999.0,75,-99.99,,,0.00,weatherlink.com 1.10,2013-02-26 22:35:00,
2013-02-26 14:50:00,51.4,44.0,30.17,SSW,199,16.0,-999.0,75,-99.99,,,0.00,weatherlink.com 1.10,2013-02-26 22:50:00,
2013-02-26 15:05:00,51.4,44.0,30.16,WSW,238,11.0,-999.0,76,-99.99,,,0.00,weatherlink.com 1.10,2013-02-26 23:05:00,
2013-02-26 15:21:00,51.5,44.0,30.16,South,179,4.0,-999.0,76,-99.99,,,0.00,weatherlink.com 1.10,2013-02-26 23:21:00,
2013-02-26 15:36:00,51.2,43.0,30.17,SSW,207,14.0,-999.0,74,-99.99,,,0.00,weatherlink.com 1.10,2013-02-26 23:36:00,
2013-02-26 15:50:00,51.3,43.0,30.17,South,178,15.0,-999.0,73,-99.99,,,0.00,weatherlink.com 1.10,2013-02-26 23:50:00,
2013-02-26 16:05:00,50.5,43.0,30.18,SSW,209,14.0,-999.0,74,-99.99,,,0.00,weatherlink.com 1.10,2013-02-27 00:05:00,
2013-02-26 16:19:00,53.1,41.0,30.17,SW,236,5.0,-999.0,64,-99.99,,,0.00,weatherlink.com 1.10,2013-02-27 00:19:00,
2013-02-26 16:36:00,50.4,43.0,30.17,South,188,12.0,-999.0,75,-99.99,,,0.00,weatherlink.com 1.10,2013-02-27 00:36:00,
2013-02-26 16:50:00,50.8,43.0,30.17,South,174,11.0,-999.0,75,-99.99,,,0.00,weatherlink.com 1.10,2013-02-27 00:50:00,
2013-02-26 17:05:00,50.2,43.0,30.17,SSW,207,11.0,-999.0,75,-99.99,,,0.00,weatherlink.com 1.10,2013-02-27 01:05:00,
2013-02-26 17:19:00,49.4,41.0,30.17,SW,215,6.0,-999.0,74,-99.99,,,0.00,weatherlink.com 1.10,2013-02-27 01:19:00,
2013-02-26 17:35:00,48.3,41.0,30.17,South,180,7.0,-999.0,76,-99.99,,,0.00,weatherlink.com 1.10,2013-02-27 01:35:00,
2013-02-26 17:49:00,47.5,41.0,30.17,WSW,240,4.0,-999.0,77,-99.99,,,0.00,weatherlink.com 1.10,2013-02-27 01:49:00,
2013-02-26 18:04:00,46.6,40.0,30.17,SSW,202,4.0,-999.0,78,-99.99,,,0.00,weatherlink.com 1.10,2013-02-27 02:04:00,
2013-02-26 18:35:00,44.4,39.0,30.18,WSW,250,4.0,-999.0,81,-99.99,,,0.00,weatherlink.com 1.10,2013-02-27 02:35:00,
2013-02-26 18:51:00,43.4,39.0,30.18,SW,221,2.0,-999.0,83,-99.99,,,0.00,weatherlink.com 1.10,2013-02-27 02:51:00,
2013-02-26 19:05:00,42.4,37.0,30.17,West,264,3.0,-999.0,81,-99.99,,,0.00,weatherlink.com 1.10,2013-02-27 03:05:00,
2013-02-26 19:20:00,41.7,37.0,30.17,SSE,152,0.0,-999.0,84,-99.99,,,0.00,weatherlink.com 1.10,2013-02-27 03:20:00,
2013-02-26 19:34:00,40.4,35.0,30.17,WSW,237,2.0,-999.0,82,-99.99,,,0.00,weatherlink.com 1.10,2013-02-27 03:34:00,
2013-02-26 19:51:00,39.0,34.0,30.18,WSW,248,3.0,-999.0,83,-99.99,,,0.00,weatherlink.com 1.10,2013-02-27 03:51:00,
2013-02-26 20:05:00,38.7,35.0,30.18,WSW,239,3.0,-999.0,85,-99.99,,,0.00,weatherlink.com 1.10,2013-02-27 04:05:00,
2013-02-26 20:20:00,37.8,33.0,30.18,WSW,245,1.0,-999.0,84,-99.99,,,0.00,weatherlink.com 1.10,2013-02-27 04:20:00,
2013-02-26 20:35:00,37.0,33.0,30.20,SW,236,4.0,-999.0,85,-99.99,,,0.00,weatherlink.com 1.10,2013-02-27 04:35:00,
2013-02-26 20:50:00,37.7,35.0,30.19,West,261,4.0,-999.0,88,-99.99,,,0.00,weatherlink.com 1.10,2013-02-27 04:50:00,
2013-02-26 21:05:00,38.5,36.0,30.19,SW,225,3.0,-999.0,89,-99.99,,,0.00,weatherlink.com 1.10,2013-02-27 05:05:00,
2013-02-26 21:19:00,39.8,37.0,30.20,WSW,238,2.0,-999.0,89,-99.99,,,0.00,weatherlink.com 1.10,2013-02-27 05:19:00,
2013-02-26 21:34:00,40.8,38.0,30.21,SW,220,1.0,-999.0,89,-99.99,,,0.00,weatherlink.com 1.10,2013-02-27 05:34:00,
2013-02-26 21:49:00,42.0,39.0,30.20,SSW,206,4.0,-999.0,89,-99.99,,,0.00,weatherlink.com 1.10,2013-02-27 05:49:00,
2013-02-26 22:04:00,41.9,38.0,30.20,SW,233,2.0,-999.0,87,-99.99,,,0.00,weatherlink.com 1.10,2013-02-27 06:04:00,
2013-02-26 22:19:00,42.2,38.0,30.20,SSW,194,5.0,-999.0,85,-99.99,,,0.00,weatherlink.com 1.10,2013-02-27 06:19:00,
2013-02-26 22:34:00,41.1,36.0,30.20,WSW,248,2.0,-999.0,82,-99.99,,,0.00,weatherlink.com 1.10,2013-02-27 06:34:00,
2013-02-26 22:49:00,39.7,35.0,30.20,WSW,246,2.0,-999.0,83,-99.99,,,0.00,weatherlink.com 1.10,2013-02-27 06:49:00,
2013-02-26 23:04:00,39.2,35.0,30.20,SW,217,4.0,-999.0,86,-99.99,,,0.00,weatherlink.com 1.10,2013-02-27 07:04:00,
2013-02-26 23:19:00,38.8,35.0,30.20,SW,219,5.0,-999.0,85,-99.99,,,0.00,weatherlink.com 1.10,2013-02-27 07:19:00,
2013-02-26 23:34:00,39.3,36.0,30.21,SW,227,3.0,-999.0,87,-99.99,,,0.00,weatherlink.com 1.10,2013-02-27 07:34:00,
2013-02-26 23:49:00,40.5,37.0,30.22,SW,216,3.0,-999.0,86,-99.99,,,0.00,weatherlink.com 1.10,2013-02-27 07:49:00,